GW2490 Weather Reports


Display with metric or nautical units.
time (UTC)temp
F
wind
direction
speed
MPH
gust
MPH
rain 1hr
in
rain 24hr
in
rain mn
in
humidity
%
barometer
mb
20260510070519 0 0.0 0.0 0.00 0.00 0.00
20260510070459 56 104 4.0 5.0 0.00 0.00 0.00 68 1015.8
20260510070021 0 0.0 0.0 0.00 0.00 0.00
20260510065957 56 92 4.0 6.0 0.00 0.00 0.00 68 1015.9
20260510065457 56 103 4.0 7.0 0.00 0.00 0.00 68 1015.9
20260510065016 0 0.0 0.0 0.00 0.00 0.00
20260510064957 56 91 4.0 6.0 0.00 0.00 0.00 68 1015.8
20260510064517 0 0.0 0.0 0.00 0.00 0.00
20260510064457 56 89 4.0 5.0 0.00 0.00 0.00 68 1015.8
20260510064017 0 0.0 0.0 0.00 0.00 0.00
20260510063957 56 96 4.0 5.0 0.00 0.00 0.00 68 1015.7
20260510063515 0 0.0 0.0 0.00 0.00 0.00
20260510063457 56 89 4.0 5.0 0.00 0.00 0.00 67 1015.7
20260510063021 0 0.0 0.0 0.00 0.00 0.00
20260510062958 56 94 5.0 6.0 0.00 0.00 0.00 68 1015.8
20260510062515 0 0.0 0.0 0.00 0.00 0.00
20260510062457 55 96 5.0 6.0 0.00 0.00 0.00 68 1015.8
20260510062026 0 0.0 0.0 0.00 0.00 0.00
20260510061958 55 95 4.0 5.0 0.00 0.00 0.00 68 1015.9
20260510061521 0 0.0 0.0 0.00 0.00 0.00
20260510061457 56 97 5.0 6.0 0.00 0.00 0.00 68 1015.9
20260510060958 56 103 3.0 5.0 0.00 0.00 0.00 68 1015.9
20260510060457 56 101 3.0 4.0 0.00 0.00 0.00 69 1015.9
20260510060017 0 0.0 0.0 0.00 0.00 0.00
20260510055957 56 107 3.0 3.0 0.00 0.00 0.00 68 1015.9
20260510055457 56 104 3.0 4.0 0.00 0.00 0.00 68 1015.9
20260510055013 0 0.0 0.0 0.00 0.00 0.00
20260510054958 57 96 4.0 5.0 0.00 0.00 0.00 67 1015.9
20260510054457 56 106 4.0 5.0 0.00 0.00 0.00 67 1015.9
20260510053958 57 92 4.0 5.0 0.00 0.00 0.00 67 1016.0
20260510053513 0 0.0 0.0 0.00 0.00 0.00
20260510053457 56 88 4.0 4.0 0.00 0.00 0.00 67 1016.0
20260510053016 0 0.0 0.0 0.00 0.00 0.00
20260510052957 56 98 4.0 5.0 0.00 0.00 0.00 67 1016.0
20260510052514 0 0.0 0.0 0.00 0.00 0.00
20260510052457 57 91 4.0 5.0 0.00 0.00 0.00 66 1016.0
20260510051958 57 91 4.0 5.0 0.00 0.00 0.00 66 1016.0
20260510051515 0 0.0 0.0 0.00 0.00 0.00
20260510051457 57 99 4.0 4.0 0.00 0.00 0.00 66 1016.1
20260510050957 57 94 3.0 4.0 0.00 0.00 0.00 66 1016.2
20260510050515 0 0.0 0.0 0.00 0.00 0.00
20260510050457 57 90 3.0 4.0 0.00 0.00 0.00 66 1016.2
20260510050014 0 0.0 0.0 0.00 0.00 0.00
20260510045957 57 78 4.0 5.0 0.00 0.00 0.00 66 1016.4
20260510045512 0 0.0 0.0 0.00 0.00 0.00
20260510045457 57 84 3.0 4.0 0.00 0.00 0.00 66 1016.5
20260510045011 0 0.0 0.0 0.00 0.00 0.00
20260510044957 57 73 3.0 4.0 0.00 0.00 0.00 66 1016.6
20260510044511 0 0.0 0.0 0.00 0.00 0.00
20260510044458 56 80 3.0 4.0 0.00 0.00 0.00 66 1016.6
20260510043958 56 59 1.0 3.0 0.00 0.00 0.00 65 1016.5
20260510043513 0 0.0 0.0 0.00 0.00 0.00
20260510043457 56 47 2.0 3.0 0.00 0.00 0.00 63 1016.5
20260510043011 0 0.0 0.0 0.00 0.00 0.00
20260510042957 56 52 3.0 4.0 0.00 0.00 0.00 65 1016.5
20260510042511 0 0.0 0.0 0.00 0.00 0.00
20260510042458 56 53 2.0 3.0 0.00 0.00 0.00 67 1016.5
20260510042012 0 0.0 0.0 0.00 0.00 0.00
20260510041957 56 45 2.0 4.0 0.00 0.00 0.00 66 1016.5
20260510041513 0 0.0 0.0 0.00 0.00 0.00
20260510041458 56 40 2.0 4.0 0.00 0.00 0.00 66 1016.5
20260510041013 0 0.0 0.0 0.00 0.00 0.00
20260510040958 56 34 2.0 3.0 0.00 0.00 0.00 64 1016.5
20260510040512 0 0.0 0.0 0.00 0.00 0.00
20260510040458 56 33 2.0 4.0 0.00 0.00 0.00 65 1016.4
20260510040012 0 0.0 0.0 0.00 0.00 0.00
20260510035958 56 34 2.0 3.0 0.00 0.00 0.00 69 1016.4
20260510035509 0 0.0 0.0 0.00 0.00 0.00
20260510035457 56 29 2.0 3.0 0.00 0.00 0.00 69 1016.1
20260510035009 0 0.0 0.0 0.00 0.00 0.00
20260510034958 56 36 2.0 3.0 0.00 0.00 0.00 69 1016.1
20260510034509 0 0.0 0.0 0.00 0.00 0.00
20260510034457 56 27 2.0 3.0 0.00 0.00 0.00 70 1016.1
20260510034009 0 0.0 0.0 0.00 0.00 0.00
20260510033958 57 0 1.0 2.0 0.00 0.00 0.00 70 1016.2
20260510033458 57 30 2.0 3.0 0.00 0.00 0.00 70 1016.2
20260510033007 0 0.0 0.0 0.00 0.00 0.00
20260510032957 57 13 1.0 2.0 0.00 0.00 0.00 70 1016.2
20260510032507 0 0.0 0.0 0.00 0.00 0.00
20260510032458 58 38 1.0 3.0 0.00 0.00 0.00 69 1016.4
20260510032007 0 0.0 0.0 0.00 0.00 0.00
20260510031958 58 58 0.0 2.0 0.00 0.00 0.00 69 1016.4
20260510031506 0 0.0 0.0 0.00 0.00 0.00
20260510031458 58 29 1.0 3.0 0.00 0.00 0.00 68 1016.4
20260510031007 0 0.0 0.0 0.00 0.00 0.00
20260510030957 58 0 0.0 0.0 0.00 0.00 0.00 67 1016.2
20260510030506 0 0.0 0.0 0.00 0.00 0.00
20260510030457 58 80 0.0 2.0 0.00 0.00 0.00 67 1016.4
20260510030007 0 0.0 0.0 0.00 0.00 0.00
20260510025957 59 44 0.0 2.0 0.00 0.00 0.00 68 1016.5
20260510025507 0 0.0 0.0 0.00 0.00 0.00
20260510025457 59 328 0.0 1.0 0.00 0.00 0.00 67 1016.5
20260510025004 0 0.0 0.0 0.00 0.00 0.00
20260510024957 60 44 0.0 2.0 0.00 0.00 0.00 66 1016.5
20260510024504 0 0.0 0.0 0.00 0.00 0.00
20260510024457 60 47 1.0 2.0 0.00 0.00 0.00 66 1016.5
20260510024005 0 0.0 0.0 0.00 0.00 0.00
20260510023957 60 6 0.0 2.0 0.00 0.00 0.00 65 1016.5
20260510023504 0 0.0 0.0 0.00 0.00 0.00
20260510023457 61 0 0.0 0.0 0.00 0.00 0.00 64 1016.5
20260510023001 0 0.0 0.0 0.00 0.00 0.00
20260510022958 61 191 0.0 0.0 0.00 0.00 0.00 62 1016.5
20260510022501 0 0.0 0.0 0.00 0.00 0.00
20260510022457 62 193 1.0 2.0 0.00 0.00 0.00 61 1016.6
20260510022002 0 0.0 0.0 0.00 0.00 0.00
20260510021958 62 187 1.0 2.0 0.00 0.00 0.00 61 1016.7
20260510021501 0 0.0 0.0 0.00 0.00 0.00
20260510021457 62 160 1.0 2.0 0.00 0.00 0.00 60 1016.6
20260510021002 0 0.0 0.0 0.00 0.00 0.00
20260510020957 63 160 2.0 3.0 0.00 0.00 0.00 59 1016.7
20260510020502 0 0.0 0.0 0.00 0.00 0.00
20260510020457 63 223 2.0 2.0 0.00 0.00 0.00 59 1016.8
20260510015957 63 186 2.0 3.0 0.00 0.00 0.00 58 1016.8
20260510015500 0 0.0 0.0 0.00 0.00 0.00
20260510015457 64 218 2.0 4.0 0.00 0.00 0.00 58 1016.9
20260510014959 0 0.0 0.0 0.00 0.00 0.00
20260510014957 63 220 2.0 4.0 0.00 0.00 0.00 59 1017.0
20260510014459 0 0.0 0.0 0.00 0.00 0.00
20260510014457 63 167 2.0 3.0 0.00 0.00 0.00 59 1017.0
20260510013957 64 145 1.0 2.0 0.00 0.00 0.00 60 1016.9
20260510013500 0 0.0 0.0 0.00 0.00 0.00
20260510013457 64 172 1.0 2.0 0.00 0.00 0.00 58 1017.0
20260510012959 0 0.0 0.0 0.00 0.00 0.00
20260510012957 64 170 2.0 3.0 0.00 0.00 0.00 58 1017.1
20260510012500 0 0.0 0.0 0.00 0.00 0.00
20260510012457 64 154 1.0 2.0 0.00 0.00 0.00 58 1017.1
20260510011959 0 0.0 0.0 0.00 0.00 0.00
20260510011957 64 346 0.0 2.0 0.00 0.00 0.00 58 1017.2
20260510011457 64 243 3.0 5.0 0.00 0.00 0.00 57 1017.5
20260510011000 0 0.0 0.0 0.00 0.00 0.00
20260510010957 64 272 2.0 4.0 0.00 0.00 0.00 57 1017.6
20260510010457 64 208 2.0 4.0 0.00 0.00 0.00 57 1017.6
20260510005957 64 237 3.0 5.0 0.00 0.00 0.00 57 1017.5
20260510005457 0 0.0 0.0 0.00 0.00 0.00
20260510004957 65 291 3.0 5.0 0.00 0.00 0.00 57 1017.6
20260510004457 0 0.0 0.0 0.00 0.00 0.00
20260510003957 0 0.0 0.0 0.00 0.00 0.00
20260510003458 0 0.0 0.0 0.00 0.00 0.00
20260510002957 65 286 3.0 7.0 0.00 0.00 0.00 56 1017.8
20260510002955 0 0.0 0.0 0.00 0.00 0.00
20260510002457 64 304 3.0 6.0 0.00 0.00 0.00 57 1017.7
20260510001959 65 295 1.0 3.0 0.00 0.00 0.00 57 1017.9
20260510001955 0 0.0 0.0 0.00 0.00 0.00
20260510001457 64 276 3.0 5.0 0.00 0.00 0.00 57 1018.1
20260510000957 65 293 2.0 5.0 0.00 0.00 0.00 56 1018.1
20260510000954 0 0.0 0.0 0.00 0.00 0.00
20260510000457 64 289 2.0 3.0 0.00 0.00 0.00 57 1018.0
20260509235955 0 0.0 0.0 0.00 0.00 0.00
20260509235513 64 304 3.0 5.0 0.00 0.00 0.00 57 1018.1
20260509235452 0 0.0 0.0 0.00 0.00 0.00
20260509234957 63 271 2.0 5.0 0.00 0.00 0.00 58 1018.2
20260509234457 64 272 4.0 7.0 0.00 0.00 0.00 57 1018.4
20260509234452 0 0.0 0.0 0.00 0.00 0.00
20260509233957 63 275 2.0 5.0 0.00 0.00 0.00 56 1018.5
20260509233953 0 0.0 0.0 0.00 0.00 0.00
20260509233457 62 280 4.0 8.0 0.00 0.00 0.00 58 1018.5
20260509233452 0 0.0 0.0 0.00 0.00 0.00
20260509232957 62 313 6.0 8.0 0.00 0.00 0.00 58 1018.5
20260509232952 0 0.0 0.0 0.00 0.00 0.00
20260509232458 62 284 3.0 6.0 0.00 0.00 0.00 59 1018.6
20260509232453 0 0.0 0.0 0.00 0.00 0.00
20260509231957 63 290 3.0 6.0 0.00 0.00 0.00 57 1018.7
20260509231953 0 0.0 0.0 0.00 0.00 0.00
20260509231457 62 308 3.0 6.0 0.00 0.00 0.00 58 1018.7
20260509231452 0 0.0 0.0 0.00 0.00 0.00
20260509230957 63 281 4.0 6.0 0.00 0.00 0.00 58 1019.0
20260509230953 0 0.0 0.0 0.00 0.00 0.00
20260509230458 63 317 2.0 4.0 0.00 0.00 0.00 58 1019.1
20260509230454 0 0.0 0.0 0.00 0.00 0.00
20260509225957 63 298 2.0 4.0 0.00 0.00 0.00 58 1019.2
20260509225951 0 0.0 0.0 0.00 0.00 0.00
20260509225457 63 296 3.0 6.0 0.00 0.00 0.00 58 1019.2
20260509224957 63 273 3.0 8.0 0.00 0.00 0.00 58 1019.3
20260509224947 0 0.0 0.0 0.00 0.00 0.00
20260509224502 62 288 3.0 6.0 0.00 0.00 0.00 59 1019.4
20260509224448 0 0.0 0.0 0.00 0.00 0.00
20260509223957 62 304 4.0 7.0 0.00 0.00 0.00 59 1019.5
20260509223948 0 0.0 0.0 0.00 0.00 0.00
20260509223457 63 289 4.0 5.0 0.00 0.00 0.00 59 1019.5
20260509223448 0 0.0 0.0 0.00 0.00 0.00
20260509222957 63 241 4.0 6.0 0.00 0.00 0.00 58 1019.7
20260509222947 0 0.0 0.0 0.00 0.00 0.00
20260509222457 63 326 2.0 3.0 0.00 0.00 0.00 58 1019.7
20260509222448 0 0.0 0.0 0.00 0.00 0.00
20260509221957 63 269 5.0 9.0 0.00 0.00 0.00 57 1019.7
20260509221947 0 0.0 0.0 0.00 0.00 0.00
20260509221457 64 300 5.0 8.0 0.00 0.00 0.00 58 1019.9
20260509221448 0 0.0 0.0 0.00 0.00 0.00
20260509220957 64 287 6.0 10.0 0.00 0.00 0.00 56 1019.9
20260509220949 0 0.0 0.0 0.00 0.00 0.00
20260509220457 64 275 4.0 7.0 0.00 0.00 0.00 58 1020.0
20260509220445 0 0.0 0.0 0.00 0.00 0.00
20260509215957 64 265 2.0 7.0 0.00 0.00 0.00 57 1019.9
20260509215943 0 0.0 0.0 0.00 0.00 0.00
20260509215457 63 276 2.0 4.0 0.00 0.00 0.00 59 1020.1
20260509214957 63 281 4.0 7.0 0.00 0.00 0.00 59 1020.1
20260509214457 62 270 2.0 3.0 0.00 0.00 0.00 63 1020.2
20260509213957 61 301 5.0 8.0 0.00 0.00 0.00 64 1020.3
20260509213941 0 0.0 0.0 0.00 0.00 0.00
20260509213457 61 305 4.0 6.0 0.00 0.00 0.00 64 1020.2
20260509213441 0 0.0 0.0 0.00 0.00 0.00
20260509212958 61 290 4.0 7.0 0.00 0.00 0.00 65 1020.3
20260509212941 0 0.0 0.0 0.00 0.00 0.00
20260509212457 60 316 3.0 6.0 0.00 0.00 0.00 65 1020.3
20260509211957 60 309 2.0 5.0 0.00 0.00 0.00 66 1020.5
20260509211940 0 0.0 0.0 0.00 0.00 0.00
20260509211457 60 283 2.0 6.0 0.00 0.00 0.00 65 1020.5
20260509211441 0 0.0 0.0 0.00 0.00 0.00
20260509210957 60 299 2.0 5.0 0.00 0.00 0.00 65 1020.4
20260509210942 0 0.0 0.0 0.00 0.00 0.00
20260509210458 60 272 3.0 4.0 0.00 0.00 0.00 66 1020.6
20260509210441 0 0.0 0.0 0.00 0.00 0.00
20260509205957 60 298 5.0 10.0 0.00 0.00 0.00 68 1020.6
20260509205940 0 0.0 0.0 0.00 0.00 0.00
20260509205457 60 300 4.0 6.0 0.00 0.00 0.00 67 1020.7
20260509205437 0 0.0 0.0 0.00 0.00 0.00
20260509204958 60 290 3.0 6.0 0.00 0.00 0.00 69 1020.7
20260509204937 0 0.0 0.0 0.00 0.00 0.00
20260509204457 60 309 4.0 6.0 0.00 0.00 0.00 70 1020.8
20260509204438 0 0.0 0.0 0.00 0.00 0.00
20260509203957 59 257 4.0 7.0 0.00 0.00 0.00 70 1020.9
20260509203938 0 0.0 0.0 0.00 0.00 0.00
20260509203457 59 306 3.0 6.0 0.00 0.00 0.00 72 1020.7
20260509203438 0 0.0 0.0 0.00 0.00 0.00
20260509202957 59 272 3.0 4.0 0.00 0.00 0.00 71 1020.7
20260509202937 0 0.0 0.0 0.00 0.00 0.00
20260509202457 60 296 4.0 8.0 0.00 0.00 0.00 68 1020.5
20260509202438 0 0.0 0.0 0.00 0.00 0.00
20260509201957 60 294 2.0 3.0 0.00 0.00 0.00 70 1020.6
20260509201457 60 306 2.0 4.0 0.00 0.00 0.00 71 1020.7
20260509201438 0 0.0 0.0 0.00 0.00 0.00
20260509200957 60 282 4.0 6.0 0.00 0.00 0.00 68 1020.7
20260509200457 60 243 0.0 2.0 0.00 0.00 0.00 69 1020.8
20260509200438 0 0.0 0.0 0.00 0.00 0.00
20260509195958 60 273 4.0 6.0 0.00 0.00 0.00 70 1020.8
20260509195457 60 316 2.0 4.0 0.00 0.00 0.00 68 1020.9
20260509195436 0 0.0 0.0 0.00 0.00 0.00
20260509194957 60 271 3.0 4.0 0.00 0.00 0.00 68 1020.8
20260509194935 0 0.0 0.0 0.00 0.00 0.00
20260509194458 60 282 3.0 4.0 0.00 0.00 0.00 68 1020.9
20260509193958 60 314 5.0 7.0 0.00 0.00 0.00 68 1020.8
20260509193935 0 0.0 0.0 0.00 0.00 0.00
20260509193457 60 241 3.0 7.0 0.00 0.00 0.00 68 1021.0
20260509193440 0 0.0 0.0 0.00 0.00 0.00
20260509192957 59 255 4.0 8.0 0.00 0.00 0.00 70 1021.0
20260509192940 0 0.0 0.0 0.00 0.00 0.00
20260509192458 60 290 4.0 6.0 0.00 0.00 0.00 69 1021.1
20260509192441 0 0.0 0.0 0.00 0.00 0.00
20260509191957 59 279 3.0 5.0 0.00 0.00 0.00 70 1021.1
20260509191935 0 0.0 0.0 0.00 0.00 0.00
20260509191457 59 312 2.0 4.0 0.00 0.00 0.00 70 1021.1
20260509191434 0 0.0 0.0 0.00 0.00 0.00
20260509190957 59 286 1.0 3.0 0.00 0.00 0.00 71 1021.1
20260509190935 0 0.0 0.0 0.00 0.00 0.00
20260509190458 59 285 2.0 3.0 0.00 0.00 0.00 72 1021.2
20260509190434 0 0.0 0.0 0.00 0.00 0.00
20260509185958 59 259 3.0 5.0 0.00 0.00 0.00 71 1021.2
20260509185935 0 0.0 0.0 0.00 0.00 0.00
20260509185458 59 299 3.0 5.0 0.00 0.00 0.00 71 1021.3
20260509184957 59 304 4.0 5.0 0.00 0.00 0.00 71 1021.5
20260509184933 0 0.0 0.0 0.00 0.00 0.00
20260509184457 59 305 3.0 6.0 0.00 0.00 0.00 71 1021.4
20260509183957 58 220 2.0 4.0 0.00 0.00 0.00 73 1021.5
20260509183930 0 0.0 0.0 0.00 0.00 0.00
20260509183457 58 285 1.0 3.0 0.00 0.00 0.00 74 1021.3
20260509183430 0 0.0 0.0 0.00 0.00 0.00
20260509182956 58 305 3.0 6.0 0.00 0.00 0.00 74 1021.3
20260509182457 59 286 4.0 6.0 0.00 0.00 0.00 72 1021.3
20260509181958 58 285 4.0 7.0 0.00 0.00 0.00 73 1021.4
20260509181931 0 0.0 0.0 0.00 0.00 0.00
20260509181457 58 278 1.0 3.0 0.00 0.00 0.00 73 1021.5
20260509180957 58 301 2.0 4.0 0.00 0.00 0.00 74 1021.5
20260509180457 57 210 2.0 3.0 0.00 0.00 0.00 75 1021.6
20260509180429 0 0.0 0.0 0.00 0.00 0.00
20260509175958 57 216 3.0 4.0 0.00 0.00 0.00 75 1021.6
20260509175938 0 0.0 0.0 0.00 0.00 0.00
20260509175457 57 280 2.0 3.0 0.00 0.00 0.00 74 1021.6
20260509175433 0 0.0 0.0 0.00 0.00 0.00
20260509174957 57 209 2.0 4.0 0.00 0.00 0.00 75 1021.5
20260509174929 0 0.0 0.0 0.00 0.00 0.00
20260509174457 57 205 2.0 4.0 0.00 0.00 0.00 75 1021.6
20260509174434 0 0.0 0.0 0.00 0.00 0.00
20260509173957 57 224 1.0 3.0 0.00 0.00 0.00 76 1021.5
20260509173928 0 0.0 0.0 0.00 0.00 0.00
20260509173457 57 264 1.0 4.0 0.00 0.00 0.00 75 1021.6
20260509173426 0 0.0 0.0 0.00 0.00 0.00
20260509172957 56 306 0.0 2.0 0.00 0.00 0.00 75 1021.6
20260509172925 0 0.0 0.0 0.00 0.00 0.00
20260509172457 56 314 1.0 2.0 0.00 0.00 0.00 75 1021.6
20260509172426 0 0.0 0.0 0.00 0.00 0.00
20260509171958 56 226 1.0 2.0 0.00 0.00 0.00 76 1021.6
20260509171925 0 0.0 0.0 0.00 0.00 0.00
20260509171457 56 324 2.0 3.0 0.00 0.00 0.00 76 1021.7
20260509171426 0 0.0 0.0 0.00 0.00 0.00
20260509170959 56 266 2.0 2.0 0.00 0.00 0.00 76 1021.7
20260509170926 0 0.0 0.0 0.00 0.00 0.00
20260509170457 56 270 1.0 2.0 0.00 0.00 0.00 77 1021.7
20260509170426 0 0.0 0.0 0.00 0.00 0.00
20260509165959 56 297 3.0 4.0 0.00 0.00 0.00 76 1021.7
20260509165923 0 0.0 0.0 0.00 0.00 0.00
20260509165459 56 307 2.0 3.0 0.00 0.00 0.00 77 1021.7
20260509165424 0 0.0 0.0 0.00 0.00 0.00
20260509164957 56 258 1.0 4.0 0.00 0.00 0.00 77 1021.6
20260509164457 57 282 2.0 4.0 0.00 0.00 0.00 76 1021.7
20260509164421 0 0.0 0.0 0.00 0.00 0.00
20260509163958 57 279 1.0 4.0 0.00 0.00 0.00 75 1021.7
20260509163920 0 0.0 0.0 0.00 0.00 0.00
20260509163457 56 301 2.0 4.0 0.00 0.00 0.00 75 1021.7
20260509163418 0 0.0 0.0 0.00 0.00 0.00
20260509162957 56 312 2.0 3.0 0.00 0.00 0.00 77 1021.7
20260509162919 0 0.0 0.0 0.00 0.00 0.00
20260509162457 56 285 2.0 3.0 0.00 0.00 0.00 76 1021.8
20260509162000 56 259 2.0 3.0 0.00 0.00 0.00 76 1021.8
20260509161918 0 0.0 0.0 0.00 0.00 0.00
20260509161457 56 239 2.0 3.0 0.00 0.00 0.00 76 1021.9
20260509161418 0 0.0 0.0 0.00 0.00 0.00
20260509160957 56 284 2.0 3.0 0.00 0.00 0.00 75 1022.0
20260509160918 0 0.0 0.0 0.00 0.00 0.00
20260509160457 56 209 3.0 4.0 0.00 0.00 0.00 74 1022.1
20260509155957 55 257 2.0 3.0 0.00 0.00 0.00 75 1022.1
20260509155457 55 263 1.0 2.0 0.00 0.00 0.00 75 1022.1
20260509154957 55 316 2.0 3.0 0.00 0.00 0.00 74 1022.2
20260509154920 0 0.0 0.0 0.00 0.00 0.00
20260509154457 55 6 1.0 3.0 0.00 0.00 0.00 74 1022.2
20260509153958 55 308 1.0 2.0 0.00 0.00 0.00 77 1022.3
20260509153457 55 218 1.0 2.0 0.00 0.00 0.00 78 1022.3
20260509153413 0 0.0 0.0 0.00 0.00 0.00
20260509152957 55 0 0.0 0.0 0.00 0.00 0.00 77 1022.3
20260509152457 55 186 0.0 1.0 0.00 0.00 0.00 77 1022.2
20260509152412 0 0.0 0.0 0.00 0.00 0.00
20260509151957 55 282 0.0 1.0 0.00 0.00 0.00 77 1022.3
20260509151457 55 0 0.0 0.0 0.00 0.00 0.00 76 1022.2
20260509151413 0 0.0 0.0 0.00 0.00 0.00
20260509150957 54 354 0.0 1.0 0.00 0.00 0.00 78 1022.3
20260509150913 0 0.0 0.0 0.00 0.00 0.00
20260509150457 54 299 0.0 0.0 0.00 0.00 0.00 77 1022.3
20260509150413 0 0.0 0.0 0.00 0.00 0.00
20260509145957 54 345 0.0 0.0 0.00 0.00 0.00 78 1022.4
20260509145913 0 0.0 0.0 0.00 0.00 0.00
20260509145457 53 263 0.0 2.0 0.00 0.00 0.00 79 1022.4
20260509145413 0 0.0 0.0 0.00 0.00 0.00
20260509144959 53 0 0.0 0.0 0.00 0.00 0.00 80 1022.4
20260509144913 0 0.0 0.0 0.00 0.00 0.00
20260509144457 53 173 0.0 1.0 0.00 0.00 0.00 80 1022.5
20260509144413 0 0.0 0.0 0.00 0.00 0.00
20260509143957 52 114 0.0 1.0 0.00 0.00 0.00 81 1022.5
20260509143458 52 125 2.0 3.0 0.00 0.00 0.00 81 1022.3
20260509143411 0 0.0 0.0 0.00 0.00 0.00
20260509142958 53 135 2.0 2.0 0.00 0.00 0.00 81 1022.4
20260509142911 0 0.0 0.0 0.00 0.00 0.00
20260509142457 52 143 0.0 1.0 0.00 0.00 0.00 82 1022.4
20260509141958 52 0 0.0 0.0 0.00 0.00 0.00 82 1022.5
20260509141911 0 0.0 0.0 0.00 0.00 0.00
20260509141457 52 88 0.0 0.0 0.00 0.00 0.00 81 1022.5
20260509141415 0 0.0 0.0 0.00 0.00 0.00
20260509140957 52 128 2.0 3.0 0.00 0.00 0.00 81 1022.5
20260509140911 0 0.0 0.0 0.00 0.00 0.00
20260509140457 52 126 2.0 3.0 0.00 0.00 0.00 81 1022.5
20260509140359 0 0.0 0.0 0.00 0.00 0.00
20260509135957 52 90 4.0 5.0 0.00 0.00 0.00 81 1022.5
20260509135856 0 0.0 0.0 0.00 0.00 0.00
20260509135458 52 107 3.0 4.0 0.00 0.00 0.00 81 1022.5
20260509134957 52 113 3.0 4.0 0.00 0.00 0.00 80 1022.6
20260509134842 0 0.0 0.0 0.00 0.00 0.00
20260509134458 52 107 3.0 3.0 0.00 0.00 0.00 81 1022.7
20260509134341 0 0.0 0.0 0.00 0.00 0.00
20260509133958 52 102 4.0 4.0 0.00 0.00 0.00 81 1022.6
20260509133841 0 0.0 0.0 0.00 0.00 0.00
20260509133457 52 107 4.0 4.0 0.00 0.00 0.00 80 1022.5
20260509133342 0 0.0 0.0 0.00 0.00 0.00
20260509132957 52 102 3.0 4.0 0.00 0.00 0.00 80 1022.5
20260509132841 0 0.0 0.0 0.00 0.00 0.00
20260509132457 51 94 4.0 5.0 0.00 0.00 0.00 80 1022.5
20260509132342 0 0.0 0.0 0.00 0.00 0.00
20260509131957 51 97 5.0 5.0 0.00 0.00 0.00 79 1022.5
20260509131840 0 0.0 0.0 0.00 0.00 0.00
20260509131457 52 104 3.0 4.0 0.00 0.00 0.00 79 1022.5
20260509130958 51 87 4.0 5.0 0.00 0.00 0.00 78 1022.5
20260509130457 51 93 4.0 4.0 0.00 0.00 0.00 79 1022.5
20260509130340 0 0.0 0.0 0.00 0.00 0.00
20260509125957 51 99 3.0 4.0 0.00 0.00 0.00 79 1022.5
20260509125840 0 0.0 0.0 0.00 0.00 0.00
20260509125459 51 105 3.0 3.0 0.00 0.00 0.00 79 1022.5
20260509125341 0 0.0 0.0 0.00 0.00 0.00
20260509124957 51 95 3.0 4.0 0.00 0.00 0.00 79 1022.4
20260509124830 0 0.0 0.0 0.00 0.00 0.00
20260509124458 51 105 4.0 4.0 0.00 0.00 0.00 78 1022.4
20260509124330 0 0.0 0.0 0.00 0.00 0.00
20260509123957 51 105 3.0 4.0 0.00 0.00 0.00 79 1022.3
20260509123830 0 0.0 0.0 0.00 0.00 0.00
20260509123458 51 107 4.0 4.0 0.00 0.00 0.00 78 1022.4
20260509123329 0 0.0 0.0 0.00 0.00 0.00
20260509122957 51 92 4.0 4.0 0.00 0.00 0.00 79 1022.4
20260509122827 0 0.0 0.0 0.00 0.00 0.00
20260509122457 51 97 4.0 4.0 0.00 0.00 0.00 79 1022.4
20260509122327 0 0.0 0.0 0.00 0.00 0.00
20260509121958 51 106 3.0 4.0 0.00 0.00 0.00 79 1022.5
20260509121827 0 0.0 0.0 0.00 0.00 0.00
20260509121457 51 92 2.0 3.0 0.00 0.00 0.00 79 1022.5
20260509120957 51 93 4.0 4.0 0.00 0.00 0.00 79 1022.5
20260509120812 0 0.0 0.0 0.00 0.00 0.00
20260509120458 51 98 3.0 3.0 0.00 0.00 0.00 78 1022.5
20260509120313 0 0.0 0.0 0.00 0.00 0.00
20260509115958 51 100 3.0 3.0 0.00 0.00 0.00 79 1022.6
20260509115813 0 0.0 0.0 0.00 0.00 0.00
20260509115457 51 79 4.0 4.0 0.00 0.00 0.00 79 1022.5
20260509115313 0 0.0 0.0 0.00 0.00 0.00
20260509114958 51 94 4.0 4.0 0.00 0.00 0.00 78 1022.6
20260509114813 0 0.0 0.0 0.00 0.00 0.00
20260509114457 51 84 3.0 4.0 0.00 0.00 0.00 79 1022.7
20260509114314 0 0.0 0.0 0.00 0.00 0.00
20260509113957 51 86 3.0 3.0 0.00 0.00 0.00 79 1022.7
20260509113813 0 0.0 0.0 0.00 0.00 0.00
20260509113457 51 99 3.0 3.0 0.00 0.00 0.00 79 1022.7
20260509113313 0 0.0 0.0 0.00 0.00 0.00
20260509112957 51 111 2.0 3.0 0.00 0.00 0.00 79 1022.7
20260509112758 0 0.0 0.0 0.00 0.00 0.00
20260509112458 51 107 2.0 3.0 0.00 0.00 0.00 79 1022.6
20260509112258 0 0.0 0.0 0.00 0.00 0.00
20260509111957 51 100 2.0 2.0 0.00 0.00 0.00 79 1022.6
20260509111758 0 0.0 0.0 0.00 0.00 0.00
20260509111457 51 95 1.0 2.0 0.00 0.00 0.00 79 1022.6
20260509111259 0 0.0 0.0 0.00 0.00 0.00
20260509110958 51 95 1.0 2.0 0.00 0.00 0.00 78 1022.6
20260509110759 0 0.0 0.0 0.00 0.00 0.00
20260509110457 51 100 0.0 0.0 0.00 0.00 0.00 78 1022.6
20260509105957 51 0 0.0 0.0 0.00 0.00 0.00 78 1022.6
20260509105759 0 0.0 0.0 0.00 0.00 0.00
20260509105457 51 95 1.0 2.0 0.00 0.00 0.00 78 1022.6
20260509105258 0 0.0 0.0 0.00 0.00 0.00
20260509104959 51 83 1.0 2.0 0.00 0.00 0.00 78 1022.6
20260509104759 0 0.0 0.0 0.00 0.00 0.00
20260509104457 51 0 0.0 0.0 0.00 0.00 0.00 78 1022.6
20260509104259 0 0.0 0.0 0.00 0.00 0.00
20260509103957 51 99 1.0 2.0 0.00 0.00 0.00 79 1022.6
20260509103745 0 0.0 0.0 0.00 0.00 0.00
20260509103457 51 85 2.0 3.0 0.00 0.00 0.00 78 1022.6
20260509103245 0 0.0 0.0 0.00 0.00 0.00
20260509102957 51 88 3.0 4.0 0.00 0.00 0.00 78 1022.5
20260509102457 51 98 3.0 3.0 0.00 0.00 0.00 78 1022.6
20260509102245 0 0.0 0.0 0.00 0.00 0.00
20260509101957 51 100 3.0 4.0 0.00 0.00 0.00 78 1022.6
20260509101743 0 0.0 0.0 0.00 0.00 0.00
20260509101457 51 91 3.0 4.0 0.00 0.00 0.00 78 1022.6
20260509101243 0 0.0 0.0 0.00 0.00 0.00
20260509101002 51 95 3.0 4.0 0.00 0.00 0.00 78 1022.6
20260509100743 0 0.0 0.0 0.00 0.00 0.00
20260509100457 51 98 3.0 3.0 0.00 0.00 0.00 78 1022.6
20260509100244 0 0.0 0.0 0.00 0.00 0.00
20260509095957 51 98 3.0 4.0 0.00 0.00 0.00 79 1022.6
20260509095743 0 0.0 0.0 0.00 0.00 0.00
20260509095457 51 96 3.0 4.0 0.00 0.00 0.00 79 1022.6
20260509095244 0 0.0 0.0 0.00 0.00 0.00
20260509094957 51 101 3.0 3.0 0.00 0.00 0.00 79 1022.6
20260509094457 51 102 3.0 4.0 0.00 0.00 0.00 79 1022.5
20260509094240 0 0.0 0.0 0.00 0.00 0.00
20260509093957 51 103 3.0 4.0 0.00 0.00 0.00 79 1022.5
20260509093740 0 0.0 0.0 0.00 0.00 0.00
20260509093457 51 95 3.0 4.0 0.00 0.00 0.00 78 1022.5
20260509093240 0 0.0 0.0 0.00 0.00 0.00
20260509092958 51 100 3.0 4.0 0.00 0.00 0.00 78 1022.4
20260509092740 0 0.0 0.0 0.00 0.00 0.00
20260509092457 51 99 4.0 4.0 0.00 0.00 0.00 78 1022.4
20260509092241 0 0.0 0.0 0.00 0.00 0.00
20260509091958 51 103 3.0 4.0 0.00 0.00 0.00 78 1022.5
20260509091457 51 90 3.0 4.0 0.00 0.00 0.00 78 1022.5
20260509091241 0 0.0 0.0 0.00 0.00 0.00
20260509090957 51 96 4.0 5.0 0.00 0.00 0.00 78 1022.4
20260509090741 0 0.0 0.0 0.00 0.00 0.00
20260509090457 51 100 4.0 4.0 0.00 0.00 0.00 78 1022.4
20260509085957 51 90 3.0 4.0 0.00 0.00 0.00 78 1022.4
20260509085741 0 0.0 0.0 0.00 0.00 0.00
20260509085458 51 99 3.0 4.0 0.00 0.00 0.00 78 1022.5
20260509085241 0 0.0 0.0 0.00 0.00 0.00
20260509084957 51 94 4.0 5.0 0.00 0.00 0.00 79 1022.5
20260509084738 0 0.0 0.0 0.00 0.00 0.00
20260509084457 51 84 3.0 4.0 0.00 0.00 0.00 78 1022.5
20260509084238 0 0.0 0.0 0.00 0.00 0.00
20260509083957 51 96 4.0 5.0 0.00 0.00 0.00 78 1022.6
20260509083739 0 0.0 0.0 0.00 0.00 0.00
20260509083457 51 93 4.0 6.0 0.00 0.00 0.00 77 1022.6
20260509083238 0 0.0 0.0 0.00 0.00 0.00
20260509082957 51 83 4.0 5.0 0.00 0.00 0.00 78 1022.6
20260509082740 0 0.0 0.0 0.00 0.00 0.00
20260509082457 51 100 4.0 6.0 0.00 0.00 0.00 78 1022.6
20260509082238 0 0.0 0.0 0.00 0.00 0.00
20260509081957 51 97 3.0 4.0 0.00 0.00 0.00 78 1022.7
20260509081739 0 0.0 0.0 0.00 0.00 0.00
20260509081457 51 102 4.0 4.0 0.00 0.00 0.00 78 1022.7
20260509081239 0 0.0 0.0 0.00 0.00 0.00
20260509080957 52 104 3.0 4.0 0.00 0.00 0.00 77 1022.7
20260509080738 0 0.0 0.0 0.00 0.00 0.00
20260509080458 52 107 3.0 3.0 0.00 0.00 0.00 77 1022.7
20260509080239 0 0.0 0.0 0.00 0.00 0.00
20260509075958 52 93 4.0 5.0 0.00 0.00 0.00 77 1022.7
20260509075738 0 0.0 0.0 0.00 0.00 0.00
20260509075458 52 96 4.0 4.0 0.00 0.00 0.00 77 1022.6
20260509075239 0 0.0 0.0 0.00 0.00 0.00
20260509074957 52 97 4.0 4.0 0.00 0.00 0.00 77 1022.6
20260509074736 0 0.0 0.0 0.00 0.00 0.00
20260509074457 52 100 4.0 5.0 0.00 0.00 0.00 76 1022.6
20260509074236 0 0.0 0.0 0.00 0.00 0.00
20260509073957 52 97 4.0 4.0 0.00 0.00 0.00 76 1022.6
20260509073458 52 98 4.0 5.0 0.00 0.00 0.00 76 1022.5
20260509072957 52 103 3.0 4.0 0.00 0.00 0.00 77 1022.5
20260509072736 0 0.0 0.0 0.00 0.00 0.00
20260509072458 52 97 4.0 6.0 0.00 0.00 0.00 78 1022.6
20260509072237 0 0.0 0.0 0.00 0.00 0.00
20260509071958 52 102 4.0 5.0 0.00 0.00 0.00 77 1022.6
20260509071736 0 0.0 0.0 0.00 0.00 0.00
20260509071458 52 96 2.0 3.0 0.00 0.00 0.00 77 1022.6
20260509071236 0 0.0 0.0 0.00 0.00 0.00
20260509070957 52 75 3.0 4.0 0.00 0.00 0.00 77 1022.6